Location: Newark
(43.0000°N, 1.6781°W)
Time: 10:06:05
(UTC+00:00)

AO-7 - Pass Details

Date: 08 December 2022
Orbit: 1440 x 1459 km, 101.9° (Epoch: 28 January)

Event Time Altitude Azimuth Distance (km) Brightness Sun altitude
Rises 05:36:10 0° 15° (NNE) 4,545 ? -19.2°
Reaches altitude 10° 05:38:58 10° 12° (NNE) 3,565 ? -18.7°
Maximum altitude 05:47:06 62° 295° (WNW) 1,603 ? -17.3°
Drops below altitude 10° 05:55:13 10° 217° (SW) 3,560 ? -15.8°
Sets 05:58:02 0° 214° (SW) 4,537 ? -15.4°
